Weather History for KVOK - October, 2014

Change the Weather History Date:

Monday, October 20, 2014

  Actual Average Record
Temperature  
Mean Temperature 50 °F -  
Max Temperature 60 °F 53 °F 80 °F (2003)
Min Temperature 40 °F 38 °F 24 °F (2013)
Degree Days  
Heating Degree Days 15    
Moisture  
Dew Point 44 °F    
Average Humidity 79    
Maximum Humidity 100    
Minimum Humidity 51    
Precipitation  
Precipitation 0.00 in - - ()
Sea Level Pressure  
Sea Level Pressure 29.94 in    
Wind  
Wind Speed 8 mph (NW)    
Max Wind Speed 15 mph    
Max Gust Speed 20 mph    
Visibility 10 miles    
Events      
Averages and records for this station are not official NWS values.
T = Trace of Precipitation, MM = Missing Value Source: NWS Daily Summary

Daily Weather History Graph

Daily Weather History Graph

Search for Another Location

Airport or City:

Trip Planner

Search our weather history database for the weather conditions in past years. The results will help you decide how hot, cold, wet, or windy it might be!

Date:

Astronomy

Oct. 20, 2014 Rise Set
Actual Time 7:21 AM CDT 6:09 PM CDT
Civil Twilight 6:52 AM CDT 6:38 PM CDT
Nautical Twilight 6:18 AM CDT 7:11 PM CDT
Astronomical Twilight 5:45 AM CDT 7:45 PM CDT
Moon 4:03 AM CDT (10/20) 4:37 PM CDT (10/20)
Length of Visible Light 11h 45m
Length of Day
10h 47m
Waning Crescent, 10% of the Moon is Illuminated
Oct 20
Waning Crescent
Oct 23
New
Oct 30
First Quarter
Nov 6
Full
Nov 14
Last Quarter

Hourly Weather History & Observations

Time (CDT) Temp. Windchill Dew Point Humidity Pressure Visibility Wind Dir Wind Speed Gust Speed Precip Events Conditions
12:58 AM 48.6 °F - 47.8 °F 97% 29.78 in 10.0 mi West 3.5 mph - N/A   Clear
1:58 AM 46.4 °F 43.5 °F 46.2 °F 99% 29.79 in 10.0 mi WNW 5.8 mph - N/A   Clear
2:58 AM 47.1 °F - 47.1 °F 100% 29.81 in 10.0 mi WNW 10.4 mph - N/A   Clear
3:58 AM 48.7 °F - 48.7 °F 100% 29.83 in 10.0 mi WNW 11.5 mph - N/A   Mostly Cloudy
4:58 AM 47.5 °F - 47.1 °F 99% 29.85 in 10.0 mi WNW 9.2 mph - N/A   Clear
5:58 AM 46.6 °F - 46.6 °F 100% 29.88 in 10.0 mi WNW 8.1 mph - N/A   Clear
6:58 AM 41.0 °F 35.8 °F 41.0 °F 100% 29.90 in 10.0 mi WNW 8.1 mph - N/A   Clear
7:58 AM 41.0 °F 38.0 °F 41.0 °F 100% 29.92 in 10.0 mi WNW 4.6 mph - N/A   Clear
8:58 AM 50.0 °F - 48.2 °F 94% 29.92 in 10.0 mi WNW 8.1 mph - N/A   Clear
9:58 AM 55.4 °F - 46.4 °F 72% 29.94 in 10.0 mi NW 10.4 mph - N/A   Partly Cloudy
10:58 AM 55.4 °F - 42.8 °F 63% 29.92 in 10.0 mi NW 11.5 mph - N/A   Scattered Clouds
11:58 AM 55.4 °F - 42.8 °F 63% 29.92 in 10.0 mi WNW 12.7 mph - N/A   Mostly Cloudy
12:58 PM 59.0 °F - 42.8 °F 55% 29.94 in 10.0 mi NW 12.7 mph 19.6 mph N/A   Mostly Cloudy
1:58 PM 59.0 °F - 41.0 °F 51% 29.94 in 10.0 mi NW 15.0 mph 19.6 mph N/A   Mostly Cloudy
2:58 PM 59.0 °F - 42.8 °F 55% 29.95 in 10.0 mi North 12.7 mph - N/A   Overcast
3:58 PM 57.2 °F - 41.0 °F 55% 29.97 in 10.0 mi NNW 10.4 mph - N/A   Mostly Cloudy
4:58 PM 55.4 °F - 41.0 °F 58% 29.99 in 10.0 mi North 8.1 mph - N/A   Mostly Cloudy
5:58 PM 55.4 °F - 41.0 °F 58% 30.01 in 10.0 mi North 8.1 mph - N/A   Mostly Cloudy
6:58 PM 53.6 °F - 41.0 °F 62% 30.04 in 10.0 mi North 6.9 mph - N/A   Mostly Cloudy
7:58 PM 51.8 °F - 41.0 °F 67% 30.06 in 10.0 mi NNE 5.8 mph - N/A   Mostly Cloudy
8:58 PM 51.8 °F - 41.0 °F 67% 30.06 in 10.0 mi NNW 3.5 mph - N/A   Mostly Cloudy
9:58 PM 48.2 °F - 42.8 °F 82% 30.07 in 10.0 mi Calm Calm - N/A   Mostly Cloudy
10:58 PM 44.6 °F - 42.8 °F 93% 30.05 in 10.0 mi Calm Calm - N/A   Mostly Cloudy
11:58 PM 40.5 °F 38.4 °F 40.5 °F 100% 30.06 in 10.0 mi NNE 3.5 mph - N/A   Overcast